Temperature
16 17 17 17 20 21 21 22 22 22 22 22 21 22 24 25 25 25 21 20 20 21 21 19 18 17 17 16 16 16 16 16 16 16 15 15 15 15 15 15 15 14 14 14 14 14 14 14 14
16 16 17 19 20 20 21 22 22 22 22 20 21 22 23 24 22 20 20 19 19 20 20 19 18 17 17 16 16 16 16 16 16 16 15 15 15 15 15 15 15 14 14 14 14 14 14 14 14
15 16 18 20 20 20 21 22 22 22 20 20 22 22 23 23 21 19 19 19 18 19 19 18 18 17 16 16 16 16 16 16 16 16 16 16 16 15 15 15 14 14 14 14 14 14 14 14 14
14 15 18 19 19 21 22 22 21 21 21 21 21 23 22 20 19 18 19 18 18 18 18 18 17 17 16 16 16 16 16 16 16 16 16 16 16 16 15 15 14 14 14 14 14 14 14 14 14
14 17 18 19 20 21 22 21 20 22 22 21 22 23 23 19 19 19 18 18 17 17 17 18 17 16 16 16 16 16 16 17 17 17 16 16 16 16 15 15 14 14 14 14 14 14 14 14 14
15 17 18 19 20 21 21 20 20 21 22 21 22 23 22 20 19 19 18 18 17 17 17 17 16 16 16 16 16 16 17 17 17 17 17 17 16 16 15 15 14 14 14 14 14 14 14 14 14
16 17 18 20 20 20 20 19 20 21 22 22 21 23 22 19 19 18 18 17 17 17 17 16 16 15 15 16 16 16 16 17 17 17 17 17 16 16 16 15 15 14 14 14 14 14 14 14 14
15 17 18 19 19 20 20 19 19 20 21 21 20 22 22 18 19 18 18 17 17 16 16 16 16 15 15 16 16 16 16 17 17 16 16 16 16 16 16 15 15 14 14 14 14 14 14 14 14
13 16 17 18 18 19 19 19 19 19 20 19 19 20 19 18 19 18 17 17 17 16 16 16 15 15 15 15 16 16 16 16 16 16 16 16 15 15 15 15 15 15 14 14 14 14 14 14 14
14 16 17 18 18 19 18 19 19 19 20 20 19 18 18 18 18 17 17 17 16 16 16 16 16 15 15 15 16 16 16 16 16 15 16 15 14 14 14 15 15 15 15 14 14 14 14 14 13
14 15 17 16 16 17 17 18 18 19 20 20 20 18 17 17 17 16 16 16 16 16 16 16 16 16 16 16 16 16 16 16 16 15 15 15 14 15 15 15 15 15 15 14 14 14 14 13 13
14 14 15 15 15 15 17 17 18 18 19 18 17 17 16 16 16 15 15 15 15 15 16 16 16 16 16 16 16 16 16 16 16 16 16 15 15 15 15 15 15 15 14 14 14 14 13 13 13
13 13 13 14 14 15 15 16 17 17 17 16 16 16 16 16 15 15 15 15 15 15 16 16 16 16 16 16 16 16 16 16 16 16 16 16 15 15 15 14 14 14 14 14 14 13 13 13 13
13 13 13 14 14 14 15 16 16 17 16 16 16 16 16 16 15 15 15 15 15 15 15 16 16 16 16 16 16 16 16 16 16 16 16 16 15 15 14 14 14 14 14 14 14 13 13 13 12
13 13 13 14 14 14 14 15 16 16 16 16 16 16 16 16 15 15 15 15 15 15 15 16 16 16 16 17 16 16 16 16 16 16 16 15 15 15 15 14 14 14 14 13 13 13 12 12 12
13 12 13 14 14 14 14 15 17 15 15 16 17 17 16 16 16 16 16 16 16 15 16 16 16 17 17 17 17 16 16 16 16 16 16 15 15 15 14 14 14 13 13 13 13 13 12 12 12
12 12 13 13 14 14 14 15 16 14 15 16 16 16 16 16 16 16 16 16 16 16 16 16 16 17 17 17 17 17 16 16 16 16 16 16 15 15 14 14 14 13 13 13 13 12 12 12 12
12 13 13 13 13 13 14 14 15 14 14 15 16 16 15 15 15 15 16 16 16 16 16 16 16 17 17 16 16 16 16 17 17 16 16 16 16 15 14 14 14 13 13 13 13 12 12 11 11
13 13 13 13 13 13 13 14 15 15 15 15 15 15 15 14 14 15 15 16 16 16 17 17 16 16 16 16 16 16 17 17 17 17 17 16 16 15 15 14 14 13 13 13 13 12 12 11 11
12 12 12 12 12 13 13 14 14 14 14 13 14 14 14 13 13 13 14 15 15 16 16 16 16 16 16 16 16 16 16 16 17 17 17 17 16 16 15 15 15 14 14 13 12 12 12 12 11
11 12 12 12 11 11 12 14 14 13 12 12 12 12 12 12 12 12 13 14 15 15 15 16 16 16 16 16 15 15 15 15 15 16 17 17 17 16 16 16 15 15 14 13 13 13 12 12 12
10 12 12 11 12 13 12 14 14 13 12 12 12 11 11 11 11 11 11 12 13 14 14 15 15 15 15 15 15 15 14 14 15 16 16 16 16 16 16 15 15 14 14 14 13 13 12 12 12
10 11 11 11 12 12 12 13 14 13 12 12 12 11 10 10 10 10 11 12 12 13 13 14 14 14 15 15 15 14 14 14 14 14 14 15 15 15 15 14 14 14 13 13 13 13 12 12 12
9 10 9 10 10 11 12 13 14 13 13 12 12 11 10 9 9 9 10 11 12 12 13 13 13 14 14 14 14 14 14 14 13 13 13 14 14 14 14 13 13 13 13 13 12 12 12 12 11
10 10 9 10 10 12 10 11 14 13 12 12 11 11 10 9 9 9 10 10 11 12 12 13 13 13 13 13 13 13 14 13 13 13 13 13 13 13 13 13 13 12 12 12 12 11 11 11 11
9 10 11 11 12 12 9 11 13 12 11 10 10 10 9 9 9 8 9 9 10 11 11 11 12 12 12 12 12 12 13 13 13 13 13 13 12 13 13 12 12 12 11 11 11 11 11 10 10
9 9 10 10 10 11 12 11 11 11 11 11 11 10 9 9 8 8 8 9 9 10 10 10 11 11 11 11 11 12 12 12 12 12 12 12 12 12 12 11 11 11 11 10 10 10 10 10 10
9 9 9 9 10 12 12 12 13 11 11 11 11 11 10 8 8 7 8 8 8 9 9 9 9 10 10 10 10 11 11 11 11 11 11 11 11 11 11 11 10 10 10 10 10 9 9 9 9
8 8 9 10 10 12 13 13 13 12 12 12 11 10 9 8 7 6 7 7 7 8 8 8 8 9 9 9 9 9 10 10 10 10 10 10 10 10 10 10 10 9 9 9 9 9 9 9 8
9 9 9 9 9 9 12 13 11 12 12 11 10 9 8 7 6 6 6 6 6 7 7 7 7 7 8 8 8 8 8 9 9 9 9 9 9 9 9 9 8 8 8 8 8 8 8 8 7
Wind_Speed
3 3 3 3 5 7 11 7 4 3 3 1 2 5 5 5 4 0 3 9 12 18 20 21 19 19 19 20 19 18 17 15 14 13 12 11 9 8 7 6 5 6 9 10 12 14 14 14 13
3 3 4 5 8 12 11 9 10 6 1 3 4 6 6 5 2 2 4 10 15 18 19 20 20 19 19 20 19 18 16 15 14 13 11 10 8 7 7 6 6 8 10 11 13 14 14 13 12
4 4 6 6 12 15 10 6 8 5 3 3 2 3 4 2 2 1 6 13 16 16 18 19 20 19 19 20 19 18 16 15 14 12 11 9 8 8 8 7 8 10 11 12 14 14 13 12 11
6 6 7 12 19 19 14 3 3 5 2 2 3 2 1 2 4 3 11 15 17 16 17 19 20 19 20 20 19 17 16 15 13 12 10 9 9 8 8 9 9 11 12 13 14 13 13 11 10
5 7 12 18 22 18 14 10 4 5 2 1 4 3 1 3 3 7 14 15 16 15 16 19 19 19 19 19 18 17 16 14 13 12 10 9 9 9 9 9 10 12 12 13 13 12 11 10 9
8 9 15 21 23 18 14 13 10 11 8 5 4 4 1 3 4 9 14 14 14 14 15 17 18 18 18 17 16 16 15 14 13 12 11 10 10 10 9 9 10 11 12 12 12 11 10 9 8
11 13 21 22 21 20 15 11 14 13 12 8 4 4 2 4 5 9 12 13 13 14 14 15 17 16 17 16 15 15 14 14 14 12 11 10 11 10 10 9 10 11 11 11 11 10 9 8 7
8 9 18 20 20 19 14 12 10 13 11 5 4 5 2 4 7 9 10 11 12 13 13 14 15 15 15 15 15 15 14 14 14 13 12 12 12 11 10 9 9 9 10 10 10 9 8 8 7
7 11 18 19 16 13 11 12 9 5 8 5 5 3 2 7 10 10 9 9 11 12 12 12 13 13 13 13 14 14 14 14 14 13 14 14 11 11 10 9 8 9 9 9 9 9 9 8 7
11 16 19 10 9 8 11 11 9 8 10 8 7 3 2 9 12 12 12 13 13 13 13 12 12 12 12 10 12 12 13 14 14 13 14 12 10 9 9 10 8 8 9 9 9 10 9 6 6
12 14 11 6 5 5 9 9 7 9 8 7 7 4 5 10 11 12 12 12 12 13 12 12 12 12 12 10 10 10 10 12 13 13 14 12 10 9 9 9 10 9 10 9 9 9 7 6 5
11 11 8 8 5 4 6 6 7 9 5 4 2 1 5 10 11 12 11 11 11 12 13 12 12 11 12 11 10 10 10 10 11 13 15 13 10 9 9 8 9 9 9 8 8 7 7 6 6
13 9 9 6 5 4 4 6 5 7 5 2 1 2 5 8 10 11 11 11 11 11 12 13 13 12 11 11 9 10 10 11 13 13 15 14 11 10 10 9 9 9 9 9 8 8 7 7 7
12 10 8 7 8 7 9 10 9 9 6 6 6 6 6 7 9 10 11 11 12 12 12 13 13 13 12 11 10 10 11 12 13 13 15 16 14 11 10 10 10 10 10 9 9 9 7 7 6
9 10 10 10 10 6 7 14 18 14 10 11 10 9 8 8 8 11 12 12 13 12 13 14 14 14 14 14 13 11 12 13 12 13 16 17 16 14 12 10 10 11 11 11 9 9 7 6 6
11 11 11 11 12 10 10 15 9 9 13 16 15 13 11 10 10 10 11 12 12 13 13 14 13 15 16 15 13 12 12 13 13 14 15 18 19 17 14 11 11 12 12 11 9 8 8 7 7
11 13 16 10 11 10 14 12 6 6 9 12 13 13 12 11 11 10 9 10 11 12 13 14 15 16 16 15 13 12 12 13 13 14 15 17 20 20 17 12 12 14 12 10 9 9 9 8 8
17 15 14 13 9 11 13 12 7 6 7 10 11 11 11 11 11 9 8 8 9 10 11 13 14 15 14 13 11 10 12 12 13 14 16 18 18 20 18 14 15 14 11 11 11 11 10 8 8
12 13 11 10 6 9 11 12 11 10 11 12 12 11 11 10 9 7 7 7 7 8 9 11 12 13 12 11 11 12 13 13 13 13 17 19 19 20 19 14 14 14 13 14 15 12 12 9 8
11 12 10 6 5 5 7 10 9 8 9 9 9 9 8 7 6 5 5 4 5 6 7 9 10 11 12 11 12 11 12 11 13 12 15 19 20 20 18 18 15 15 14 16 16 14 10 8 10
11 11 10 7 5 3 4 6 5 3 3 2 3 3 3 3 3 2 1 1 2 3 4 5 8 9 10 11 10 9 10 10 10 13 14 17 20 21 19 19 17 16 16 15 18 17 16 12 11
10 7 8 7 6 4 4 4 5 5 6 5 5 4 3 2 2 2 2 2 2 2 3 3 4 6 7 8 10 13 13 14 15 14 13 15 18 19 20 18 17 16 15 16 17 18 16 15 12
6 7 7 5 4 3 5 5 5 7 7 6 6 5 5 4 3 3 3 3 3 4 3 3 3 3 4 6 9 11 13 14 13 13 15 15 14 16 17 17 16 16 15 17 16 17 18 15 14
10 8 6 3 2 5 7 7 6 7 8 8 6 5 5 5 5 5 5 4 5 5 5 4 4 3 3 4 6 9 12 13 14 15 14 13 12 12 16 16 16 16 14 15 15 15 17 15 14
8 7 5 5 6 6 4 6 5 6 6 7 5 4 4 4 5 5 6 6 6 7 7 6 6 5 5 5 5 7 9 12 14 14 14 14 12 11 13 13 14 13 13 13 12 12 12 13 13
9 7 4 5 6 4 5 6 3 4 5 5 3 1 2 3 4 5 6 6 6 7 7 7 7 7 7 6 6 6 8 8 9 12 12 12 11 11 11 12 12 12 11 10 10 8 9 8 9
8 6 0 1 1 3 5 4 2 5 7 7 4 1 2 3 4 5 5 6 7 7 8 8 8 8 8 8 8 7 7 7 9 10 10 9 9 8 9 9 9 9 10 9 9 7 8 8 7
2 6 4 4 4 4 5 6 8 14 12 8 3 1 2 3 3 4 5 6 6 7 7 8 8 8 9 9 8 7 7 7 7 7 8 7 7 6 6 6 7 7 7 8 8 7 8 9 8
5 4 3 3 2 3 4 4 5 15 11 6 2 1 2 3 3 4 4 5 5 6 7 8 8 9 9 9 8 8 7 7 6 5 5 5 4 3 4 4 5 6 7 8 9 9 10 11 10
4 5 6 4 4 3 2 3 5 10 8 4 0 1 1 2 2 3 4 4 5 6 7 8 8 8 9 9 8 7 7 7 6 5 4 2 1 1 2 4 6 7 7 8 10 11 11 11 11
Wind_Direction
247 254 236 224 230 230 237 225 222 206 206 229 274 252 248 241 230 210 69 156 148 151 151 155 156 157 156 152 148 145 142 141 139 137 136 134 133 135 139 140 140 144 141 135 127 119 115 111 106
223 213 209 215 231 230 229 226 223 224 281 315 269 245 245 243 307 39 136 153 153 152 152 159 154 157 156 152 148 146 145 143 141 139 137 135 134 135 138 133 134 133 132 128 123 119 116 113 108
185 221 208 213 228 231 227 216 224 219 275 283 282 244 263 303 7 90 144 154 155 153 154 153 153 156 155 152 150 149 147 145 143 140 137 135 133 133 127 121 119 125 127 125 122 120 119 115 109
182 185 211 225 229 229 230 203 173 189 211 238 302 265 228 26 354 109 147 156 156 155 155 153 155 155 153 152 152 152 151 149 146 142 140 138 134 131 123 118 117 121 124 123 123 122 121 118 112
197 198 211 225 231 229 229 226 200 215 229 281 311 299 222 58 48 134 151 157 157 156 155 156 155 154 154 154 156 156 155 154 151 148 147 146 141 130 123 120 120 123 126 124 125 124 123 120 115
190 206 218 223 226 225 224 224 227 242 251 272 290 283 106 70 109 146 154 160 159 157 156 157 155 154 156 157 160 161 161 159 156 154 154 152 146 137 132 129 126 128 127 126 127 127 125 123 118
205 207 223 226 227 223 219 213 224 236 244 249 264 261 153 105 126 152 157 162 162 161 161 163 166 163 159 159 163 165 164 162 161 160 157 150 144 143 142 140 134 132 130 130 129 129 128 126 124
221 214 224 226 226 226 213 205 222 232 244 244 236 242 176 118 142 153 157 164 168 169 170 171 172 174 175 173 169 168 168 165 164 162 154 144 142 147 148 153 142 137 134 133 132 132 130 128 129
203 217 220 216 223 221 195 201 209 217 227 210 218 253 43 132 149 156 160 170 178 181 179 178 179 179 181 181 175 177 175 172 169 168 157 158 167 164 164 158 145 145 141 140 139 134 129 127 127
201 220 223 217 216 199 182 195 189 188 204 207 207 191 136 157 166 173 179 182 186 188 188 187 186 185 185 182 182 190 188 185 189 184 176 184 180 173 167 150 156 152 149 148 142 137 145 167 156
206 224 219 198 195 183 177 186 187 199 203 206 207 196 163 176 184 189 193 193 194 193 193 195 195 193 191 188 192 192 193 193 196 194 188 189 184 176 178 173 173 174 173 173 156 169 181 186 176
208 218 211 203 189 183 179 180 193 211 194 135 118 138 174 189 196 200 201 201 198 199 200 200 202 203 203 199 197 198 197 197 198 198 196 194 192 191 189 189 185 185 189 187 189 195 186 188 185
209 201 204 209 202 204 206 215 225 221 197 187 202 188 191 199 205 208 211 209 207 207 207 207 205 208 209 210 208 207 205 203 202 201 201 201 199 200 197 198 194 197 195 193 197 199 192 194 190
206 202 200 211 220 227 236 243 240 234 226 232 232 226 214 211 212 213 216 218 216 215 213 210 210 210 211 213 214 215 212 210 210 206 206 206 207 206 203 204 202 203 203 202 201 203 197 198 197
191 199 214 222 220 220 228 244 237 237 238 241 239 238 233 229 224 225 224 226 225 221 218 214 213 212 214 216 219 221 219 215 214 212 211 210 212 211 209 211 207 207 206 205 205 201 203 199 195
188 202 216 214 215 213 217 245 230 226 231 239 242 243 242 240 238 238 236 234 232 229 224 220 214 215 216 217 219 221 223 222 219 216 214 214 214 213 212 214 213 209 205 203 201 200 201 198 199
188 207 211 200 202 203 214 246 232 213 224 234 237 241 244 247 246 243 241 240 238 233 230 226 220 219 219 219 219 220 222 224 225 221 219 216 216 215 214 216 216 209 206 205 202 204 205 204 202
193 199 201 200 184 201 215 232 227 226 234 242 243 243 243 248 252 257 253 247 243 240 237 232 226 225 224 221 220 221 223 226 226 226 224 221 217 216 216 217 217 211 207 206 203 202 205 208 197
190 191 191 191 172 201 221 237 244 251 250 251 250 248 247 251 261 267 266 256 245 240 238 237 234 229 225 220 218 220 224 226 226 227 228 225 222 218 216 216 216 211 211 209 206 200 200 200 186
180 185 182 163 169 210 228 248 253 254 249 252 251 248 248 252 255 263 266 257 247 244 242 243 241 239 232 227 225 226 229 231 229 228 230 228 224 220 217 217 215 212 212 212 208 200 200 194 189
188 189 178 159 154 178 251 239 211 187 183 196 216 231 239 246 253 269 282 277 266 265 262 255 251 248 242 238 234 232 233 235 233 230 230 228 225 223 219 220 219 215 213 213 208 203 203 199 198
185 180 170 164 185 185 228 216 164 145 129 120 114 109 103 94 83 52 36 31 11 334 316 293 277 262 254 244 236 231 230 232 234 235 235 233 228 226 223 222 221 219 216 216 212 208 210 205 199
158 142 148 165 190 211 211 233 173 161 147 123 103 89 78 69 63 53 37 25 22 10 354 335 315 292 277 258 245 241 240 242 245 244 243 240 234 228 225 222 221 220 218 219 215 209 212 211 206
132 119 101 110 189 228 208 217 192 175 161 140 113 88 75 64 57 52 45 38 32 24 16 2 348 334 316 286 263 249 248 248 249 248 247 245 241 233 228 224 223 222 220 220 219 213 212 213 211
163 159 162 181 202 218 159 216 209 148 155 150 126 87 59 51 44 37 31 26 21 15 10 2 355 345 336 315 287 269 261 257 253 252 251 249 245 238 231 225 225 224 221 218 215 211 210 212 211
180 194 205 195 193 170 177 219 157 138 162 170 163 94 49 42 33 27 21 14 9 4 1 356 350 341 337 327 312 295 280 268 261 258 256 254 250 246 238 229 225 220 215 209 204 202 200 197 202
164 193 343 96 110 202 196 212 209 162 169 174 167 115 53 30 21 16 12 7 2 358 355 349 343 338 336 330 319 308 299 283 275 271 265 260 257 254 243 229 222 214 205 196 185 187 183 175 176
125 147 161 188 205 213 186 198 179 169 168 166 158 78 35 19 13 11 7 3 359 355 351 351 349 343 338 335 329 318 311 301 290 279 269 264 260 251 237 223 212 198 185 172 165 160 159 154 148
149 164 177 177 242 241 192 153 152 164 160 156 140 19 358 360 2 5 4 3 1 2 2 1 359 353 349 345 340 336 334 330 320 303 289 276 265 247 223 197 175 166 160 155 150 147 147 142 137
204 189 178 192 200 224 257 123 131 164 161 162 284 328 340 356 6 9 10 12 13 12 10 7 4 1 356 352 353 356 355 356 358 360 358 360 30 101 129 134 135 134 138 142 142 141 141 139 137
Height
1530 1532 1534 1536 1535 1531 1526 1523 1523 1523 1523 1525 1525 1524 1521 1519 1518 1522 1521 1520 1521 1525 1528 1530 1533 1536 1539 1542 1544 1546 1548 1549 1550 1551 1552 1552 1552 1552 1552 1552 1552 1553 1554 1555 1556 1556 1557 1557 1556
1528 1531 1535 1535 1530 1529 1524 1520 1522 1522 1523 1525 1524 1523 1521 1519 1520 1520 1518 1519 1522 1525 1528 1531 1533 1537 1540 1542 1544 1546 1548 1549 1550 1551 1552 1552 1552 1552 1552 1552 1553 1554 1555 1556 1557 1558 1558 1558 1558
1526 1529 1533 1529 1525 1523 1520 1519 1519 1522 1524 1524 1523 1522 1521 1520 1520 1519 1518 1519 1522 1526 1529 1531 1534 1537 1540 1542 1544 1546 1548 1549 1550 1551 1552 1552 1552 1552 1552 1553 1554 1555 1556 1557 1558 1559 1559 1559 1559
1525 1530 1530 1525 1520 1516 1515 1518 1520 1522 1523 1523 1522 1520 1520 1520 1519 1518 1517 1519 1524 1527 1530 1532 1535 1538 1540 1543 1545 1546 1548 1549 1550 1551 1552 1552 1552 1553 1553 1554 1555 1556 1557 1558 1559 1560 1560 1560 1561
1524 1525 1523 1519 1514 1512 1515 1519 1522 1521 1521 1521 1521 1519 1519 1519 1517 1517 1518 1521 1525 1528 1531 1532 1535 1538 1541 1543 1545 1547 1548 1549 1550 1551 1552 1552 1553 1553 1554 1555 1556 1557 1558 1559 1560 1561 1561 1562 1562
1522 1519 1515 1512 1509 1510 1515 1519 1521 1520 1520 1521 1521 1518 1518 1518 1518 1519 1521 1523 1527 1529 1531 1533 1536 1539 1541 1543 1545 1547 1548 1549 1550 1551 1552 1552 1553 1554 1555 1556 1557 1558 1559 1560 1561 1561 1562 1562 1563
1517 1513 1507 1505 1505 1508 1513 1517 1518 1517 1518 1519 1520 1518 1518 1518 1518 1520 1522 1524 1527 1529 1531 1533 1536 1538 1541 1543 1545 1546 1548 1549 1550 1551 1552 1553 1554 1555 1556 1556 1557 1558 1559 1560 1561 1562 1562 1563 1563
1513 1511 1505 1503 1504 1505 1510 1515 1515 1516 1516 1518 1519 1517 1517 1519 1518 1520 1522 1524 1527 1529 1531 1533 1536 1538 1541 1543 1544 1546 1548 1549 1550 1551 1552 1553 1554 1555 1556 1557 1558 1559 1559 1560 1561 1562 1563 1563 1564
1513 1510 1501 1501 1504 1504 1509 1512 1513 1514 1516 1517 1517 1518 1518 1518 1518 1519 1521 1523 1525 1528 1530 1533 1536 1538 1540 1542 1544 1545 1547 1548 1549 1551 1552 1553 1554 1555 1556 1557 1558 1559 1559 1560 1561 1562 1563 1563 1564
1510 1503 1498 1500 1504 1505 1508 1509 1511 1512 1513 1514 1515 1516 1515 1516 1517 1519 1520 1522 1524 1526 1529 1531 1534 1536 1539 1541 1542 1544 1546 1547 1549 1550 1551 1552 1554 1555 1555 1556 1557 1558 1559 1560 1561 1561 1562 1563 1564
1504 1500 1500 1505 1506 1506 1507 1508 1510 1509 1510 1511 1513 1514 1514 1515 1517 1518 1520 1522 1523 1525 1527 1529 1532 1535 1537 1539 1541 1543 1544 1546 1547 1549 1550 1551 1553 1553 1554 1555 1556 1557 1558 1559 1560 1561 1562 1562 1563
1502 1502 1504 1505 1506 1507 1507 1508 1509 1509 1509 1511 1512 1512 1513 1514 1515 1517 1519 1521 1523 1524 1526 1528 1530 1533 1535 1537 1539 1541 1542 1544 1545 1547 1548 1549 1550 1552 1553 1554 1555 1556 1557 1558 1559 1559 1560 1561 1561
1500 1502 1504 1505 1506 1507 1508 1508 1508 1508 1510 1510 1510 1511 1512 1513 1515 1516 1518 1520 1521 1522 1524 1526 1528 1530 1532 1535 1536 1538 1540 1541 1543 1544 1545 1547 1548 1549 1551 1552 1553 1554 1555 1556 1557 1558 1559 1559 1560
1498 1501 1503 1504 1505 1506 1507 1507 1508 1506 1508 1509 1510 1511 1511 1512 1513 1515 1516 1518 1519 1520 1522 1524 1526 1528 1530 1532 1533 1535 1537 1538 1540 1541 1542 1544 1545 1546 1548 1549 1550 1551 1552 1554 1555 1556 1556 1557 1558
1498 1500 1501 1502 1503 1504 1506 1504 1502 1504 1506 1507 1508 1508 1509 1510 1511 1512 1514 1515 1517 1518 1520 1522 1523 1525 1527 1528 1530 1532 1534 1535 1536 1538 1539 1540 1542 1543 1544 1546 1547 1548 1549 1550 1552 1553 1554 1554 1555
1496 1498 1498 1496 1500 1502 1506 1497 1496 1501 1503 1503 1504 1505 1506 1507 1508 1509 1511 1512 1514 1516 1517 1519 1520 1521 1523 1525 1526 1528 1530 1531 1532 1534 1535 1536 1537 1539 1540 1541 1542 1544 1545 1547 1548 1549 1550 1551 1552
1492 1491 1491 1494 1496 1497 1500 1495 1496 1498 1499 1499 1500 1501 1502 1503 1504 1505 1506 1508 1510 1511 1513 1515 1516 1518 1519 1521 1522 1524 1525 1527 1528 1529 1530 1531 1533 1534 1535 1536 1538 1539 1540 1542 1543 1545 1546 1548 1549
1483 1483 1486 1489 1492 1494 1494 1493 1494 1495 1497 1496 1497 1498 1498 1499 1500 1501 1502 1503 1504 1506 1508 1510 1512 1513 1515 1516 1517 1519 1520 1521 1522 1523 1525 1526 1527 1529 1530 1531 1533 1534 1535 1536 1538 1540 1542 1543 1545
1477 1481 1485 1487 1492 1493 1491 1491 1490 1492 1493 1493 1493 1494 1494 1495 1495 1496 1496 1497 1499 1501 1502 1504 1506 1508 1510 1511 1512 1512 1514 1515 1516 1517 1519 1520 1521 1523 1524 1525 1527 1528 1529 1530 1533 1534 1536 1538 1540
1479 1481 1484 1489 1492 1491 1490 1488 1488 1489 1489 1490 1490 1490 1491 1491 1491 1491 1491 1492 1494 1495 1497 1499 1500 1503 1504 1505 1506 1507 1508 1509 1510 1511 1512 1514 1515 1516 1517 1518 1520 1521 1522 1524 1526 1528 1529 1531 1533
1480 1480 1483 1487 1491 1492 1490 1484 1485 1487 1488 1488 1488 1488 1488 1488 1488 1488 1487 1487 1488 1490 1491 1493 1494 1496 1498 1499 1500 1501 1501 1502 1503 1504 1505 1507 1508 1509 1510 1511 1512 1514 1515 1516 1518 1520 1522 1524 1526
1481 1482 1484 1487 1486 1485 1487 1478 1481 1484 1486 1487 1487 1486 1486 1486 1486 1485 1485 1485 1485 1485 1486 1488 1489 1490 1491 1492 1493 1494 1494 1495 1496 1498 1498 1499 1500 1501 1502 1503 1505 1506 1507 1509 1511 1512 1515 1517 1518
1480 1484 1486 1487 1486 1486 1486 1481 1476 1482 1483 1485 1486 1486 1486 1485 1484 1484 1483 1483 1483 1483 1483 1484 1484 1485 1486 1486 1487 1488 1488 1489 1490 1491 1491 1492 1493 1493 1494 1495 1497 1498 1500 1501 1503 1505 1507 1508 1510
1484 1488 1491 1491 1489 1487 1481 1480 1473 1476 1479 1483 1485 1486 1485 1485 1484 1483 1482 1481 1481 1481 1481 1481 1481 1481 1481 1481 1482 1482 1482 1483 1483 1484 1485 1485 1485 1486 1486 1488 1489 1490 1492 1493 1495 1497 1498 1500 1502
1482 1485 1488 1489 1487 1478 1486 1482 1471 1476 1480 1483 1484 1485 1485 1484 1483 1482 1481 1480 1480 1479 1478 1478 1478 1477 1477 1477 1477 1476 1476 1476 1476 1477 1477 1478 1478 1478 1479 1480 1481 1482 1484 1486 1488 1489 1491 1493 1495
1479 1480 1479 1475 1473 1474 1489 1479 1473 1479 1482 1484 1485 1485 1484 1484 1482 1481 1480 1479 1478 1477 1476 1475 1474 1474 1473 1472 1471 1471 1470 1470 1470 1470 1470 1470 1470 1471 1472 1473 1473 1474 1476 1478 1480 1481 1483 1485 1487
1480 1480 1481 1478 1481 1475 1472 1476 1476 1479 1481 1482 1483 1484 1483 1482 1481 1480 1478 1477 1476 1474 1473 1472 1471 1470 1469 1467 1466 1466 1465 1464 1464 1463 1463 1463 1463 1464 1464 1465 1466 1467 1469 1470 1472 1474 1476 1478 1480
1479 1480 1483 1482 1477 1466 1466 1468 1466 1475 1477 1480 1481 1481 1482 1481 1480 1478 1477 1475 1473 1472 1471 1469 1468 1466 1465 1463 1462 1461 1460 1459 1458 1457 1457 1456 1456 1457 1457 1458 1459 1460 1462 1463 1465 1467 1469 1471 1473
1482 1483 1480 1477 1477 1468 1460 1463 1464 1469 1474 1477 1479 1480 1480 1479 1478 1476 1475 1473 1471 1470 1468 1466 1464 1463 1461 1459 1458 1456 1455 1454 1453 1452 1451 1451 1451 1451 1451 1452 1453 1454 1455 1457 1459 1461 1463 1464 1466
1478 1477 1478 1477 1478 1477 1466 1467 1469 1470 1474 1477 1478 1478 1478 1477 1476 1474 1472 1471 1469 1467 1465 1464 1462 1460 1458 1456 1454 1452 1451 1449 1448 1448 1447 1446 1446 1446 1447 1447 1448 1449 1451 1452 1454 1456 1457 1459 1461